Location: Étang Rond
(42.7927°N, 1.0661°E)
Time: 00:50:28
(UTC+00:00)

Meteor 1-24 Rocket - Pass Details

Date: 08 November 2025
Orbit: 788 x 926 km, 81.3° (Epoch: 07 December)

Event Time Altitude Azimuth Distance (km) Brightness Sun altitude
Rises 05:22:59 0° 207° (SSW) 3,501 6.7 -14.2°
Reaches altitude 10° 05:25:36 10° 214° (SSW) 2,546 6.0 -13.7°
Maximum altitude 05:31:06 44° 285° (WNW) 1,188 4.0 -12.7°
Drops below altitude 10° 05:36:27 10° 357° (N) 2,473 6.0 -11.8°
Sets 05:38:57 0° 4° (N) 3,391 6.8 -11.3°
